This is the latest recevied weather packets stored in our database for station/object G0TQM-11. If no packets are shown the sender has not sent any weather packets the latest 10 day(s).
| Time | Temp. | Humidity | Pressure | Rain* | Wind** | Luminosity | Snow |
|---|---|---|---|---|---|---|---|
| 1788524517 | 20.56° C | 53% | 1009 hPa | - | - | - | - |
| 1788523317 | 21.11° C | 53% | 1008.7 hPa | - | - | - | - |
| 1788522141 | 20.56° C | 51% | 1008.6 hPa | - | - | - | - |
| 1788520917 | 20° C | 54% | 1008.1 hPa | - | - | - | - |
| 1788519717 | 19.44° C | 55% | 1007.8 hPa | - | - | - | - |
| 1788518516 | 19.44° C | 59% | 1007.5 hPa | - | - | - | - |
| 1788517316 | 20° C | 58% | 1007.4 hPa | - | - | - | - |
| 1788516116 | 20° C | 60% | 1007.6 hPa | - | - | - | - |
| 1788514916 | 18.89° C | 61% | 1007.4 hPa | - | - | - | - |
| 1788513716 | 18.33° C | 62% | 1007.3 hPa | - | - | - | - |
| 1788512516 | 18.33° C | 65% | 1006.9 hPa | - | - | - | - |
| 1788511315 | 17.78° C | 65% | 1006.9 hPa | - | - | - | - |
| 1788510115 | 17.78° C | 64% | 1006.5 hPa | - | - | - | - |
| 1788508915 | 17.78° C | 68% | 1006.6 hPa | - | - | - | - |
| 1788507715 | 17.22° C | 71% | 1006.5 hPa | - | - | - | - |
| 1788506522 | 17.22° C | 71% | 1006.1 hPa | - | - | - | - |
| 1788505321 | 16.11° C | 72% | 1005.5 hPa | - | - | - | - |
| 1788504121 | 17.78° C | 71% | 1005 hPa | - | - | - | - |
| 1788502921 | 17.78° C | 71% | 1004.9 hPa | - | - | - | - |
| 1788501738 | 17.78° C | 72% | 1005 hPa | - | - | - | - |
| 1788500521 | 17.78° C | 73% | 1004.8 hPa | - | - | - | - |
| 1788499321 | 17.78° C | 74% | 1004.7 hPa | - | - | - | - |
| 1788498121 | 17.78° C | 75% | 1004.6 hPa | - | - | - | - |
| 1788496920 | 17.78° C | 74% | 1004.5 hPa | - | - | - | - |
| 1788495720 | 18.33° C | 75% | 1004.8 hPa | - | - | - | - |
* Rain since midnight (hover to see other rain measurements)
** Current wind speed in m/s (hover to see current wind gust speed)